Overview Statistics Trail Chart Weather Telemetry Raw packets
 

This is the latest recevied weather packets stored in our database for station/object W4UWO. If no packets are shown the sender has not sent any weather packets the latest 10 day(s).

<< 88 89 90 91 92 93 94 >>
Time Temp. Humidity Pressure Rain* Wind** Luminosity Snow
1787970571 25° C 64% 1019.6 hPa 0 mm - 0 W/m² -
1787970267 25° C 63% 1019.7 hPa 0 mm - 0 W/m² -
1787969965 25° C 63% 1019.6 hPa 0 mm - 0 W/m² -
1787969667 25.56° C 62% 1019.7 hPa 0 mm - 0 W/m² -
1787969359 25.56° C 63% 1019.4 hPa 0 mm - 0 W/m² -
1787969058 25.56° C 62% 1019.3 hPa 0 mm - 0 W/m² -
1787968753 25.56° C 61% 1019.1 hPa 0 mm - 0 W/m² -
1787968456 25.56° C 61% 1019.1 hPa 0 mm - 0 W/m² -
1787968148 26.11° C 61% 1019 hPa 0 mm - 0 W/m² -
1787967847 26.67° C 61% 1019 hPa 0 mm - 0 W/m² -
1787967544 26.67° C 60% 1019 hPa 0 mm - 0 W/m² -
1787967239 26.11° C 59% 1018.7 hPa 0 mm - 0 W/m² -
1787966935 26.11° C 59% 1018.9 hPa 0 mm - 0 W/m² -
1787966632 26.11° C 60% 1018.7 hPa 0 mm - 0 W/m² -
1787966331 26.67° C 59% 1018.6 hPa 0 mm - 0 W/m² -
1787966026 26.67° C 59% 1018.5 hPa 0 mm - 0 W/m² -
1787965726 26.67° C 59% 1018.7 hPa 0 mm - 0 W/m² -
1787965420 26.67° C 59% 1018.4 hPa 0 mm - 0 W/m² -
1787965119 27.22° C 58% 1018.3 hPa 0 mm - 0 W/m² -
1787964815 27.22° C 56% 1018.4 hPa 0 mm - 0 W/m² -
1787964510 27.78° C 54% 1018.5 hPa 0 mm - 0 W/m² -
1787964205 27.78° C 52% 1018.4 hPa 0 mm - 0 W/m² -
1787963904 28.33° C 51% 1018.3 hPa 0 mm - 0 W/m² -
1787963599 28.33° C 50% 1018.4 hPa 0 mm - 0 W/m² -
1787963294 28.89° C 49% 1018.2 hPa 0 mm - 1 W/m² -

* Rain latest hour (hover to see other rain measurements)
** Current wind speed in m/s (hover to see current wind gust speed)